Regional Weather Roundup
Issued by NWS

Home | Current Version | Previous Version | Graphics & Text | Print | Product List | Glossary Off
Versions: 1 2 3 4 5 6 7 8 9 10 11 12 13 14 15 16 17 18 19 20 21 22 23 24 25 26 27 28 29 30 31 32 33 34 35 36 37 38 39 40 41 42 43 44 45 46 47 48 49 50

000
ASUS43 KMKX 281821
RWRWI

WISCONSIN REGIONAL WEATHER ROUNDUP
NATIONAL WEATHER SERVICE MILWAUKEE/SULLIVAN WI
100 PM CDT TUE JUL 28 2015

NOTE: "FAIR" INDICATES FEW OR NO CLOUDS BELOW 12,000 FEET WITH NO
SIGNIFICANT WEATHER AND/OR OBSTRUCTIONS TO VISIBILITY.

WIZ001-002-006>008-014>016-023>028-281900-
NORTHWEST WISCONSIN

CITY           SKY/WX    TMP DP  RH WIND       PRES   REMARKS
SUPERIOR ARPT  CLOUDY    81  71  70 SW15G28   29.77R HX  85
6HR MIN TEMP:  68; 6HR MAX TEMP:  82;

ASHLAND        CLOUDY    80  69  69 S16G25    29.79S HX  83
6HR MIN TEMP:  70; 6HR MAX TEMP:  81;

HAYWARD        CLOUDY    82  67  60 S20G28    29.84R HX  84
6HR MIN TEMP:  71; 6HR MAX TEMP:  82; 6HR PCP:  0.01;

SIREN          CLOUDY    81  68  63 S13G18    29.83R HX  84
6HR MIN TEMP:  71; 6HR MAX TEMP:  82; 6HR PCP:  0.41;

CUMBERLAND     CLOUDY    75  68  78 S14G24    29.86S
RICE LAKE      CLOUDY    78  68  72 S9G20     29.86F HX  80
6HR MIN TEMP:  69; 6HR MAX TEMP:  78; 6HR PCP:  0.35;

CHETEK         CLOUDY    78  69  73 MISG      29.85F HX  80
6HR MIN TEMP:  69; 6HR MAX TEMP:  78; 6HR PCP:  0.40;

LADYSMITH      PTSUNNY   79  67  68 S12G21    29.88S HX  81
6HR MIN TEMP:  70; 6HR MAX TEMP:  79;

EAU CLAIRE     CLOUDY    78  69  73 SW14      29.85R HX  80
6HR MIN TEMP:  70; 6HR MAX TEMP:  79; 6HR PCP:  0.29;

MENOMONIE      CLOUDY    79  71  76 S9        29.85F HX  81
6HR MIN TEMP:  71; 6HR MAX TEMP:  78; 6HR PCP:  0.46;

NEW RICHMOND   CLOUDY    79  70  74 S17G24    29.85S HX  81
6HR MIN TEMP:  70; 6HR MAX TEMP:  79; 6HR PCP:  0.64;

OSCEOLA        CLOUDY    80  70  70 S13G20    29.86S HX  83
6HR MIN TEMP:  70; 6HR MAX TEMP:  80; 6HR PCP:  0.57;

$$

WIZ003>005-009-010-017-018-281900-
NORTH CENTRAL WISCONSIN

CITY           SKY/WX    TMP DP  RH WIND       PRES   REMARKS
MANITOWISH WTR CLOUDY    74  67  80 S10G18    29.89S
6HR MIN TEMP:  68; 6HR MAX TEMP:  74;

ARBOR VITAE    CLOUDY    77  68  74 S13       29.90F
6HR MIN TEMP:  72; 6HR MAX TEMP:  77;

WOODRUFF       CLOUDY    77  68  74 S13       29.90F
6HR MIN TEMP:  72; 6HR MAX TEMP:  77;

RHINELANDER    CLOUDY    77  64  64 S13G23    29.92F
6HR MIN TEMP:  66; 6HR MAX TEMP:  79;

EAGLE RIVER    CLOUDY    76  62  61 S9G17     29.92F
6HR MIN TEMP:  66; 6HR MAX TEMP:  76;

LAND O LAKES   CLOUDY    78  63  60 S10G20    29.93F
6HR MIN TEMP:  66; 6HR MAX TEMP:  78;

PHILLIPS       CLOUDY    79  68  69 S13G21    29.87S HX  82
6HR MIN TEMP:  69; 6HR MAX TEMP:  78;

TOMAHAWK       CLOUDY    79  67  66 SE9G17    29.89F HX  81
6HR MIN TEMP:  66; 6HR MAX TEMP:  79;

MEDFORD        PTSUNNY   77  69  77 S16       29.88F
6HR MIN TEMP:  65; 6HR MAX TEMP:  77;

MERRILL        NOT AVBL
$$

WIZ029-030-035-036-043>047-281900-
CENTRAL WISCONSIN

CITY           SKY/WX    TMP DP  RH WIND       PRES   REMARKS
WAUSAU         CLOUDY    81  66  60 S14       29.89F HX  83
6HR MIN TEMP:  68; 6HR MAX TEMP:  81;

MOSINEE        PTSUNNY   77  68  73 S12       29.92F
MARSHFIELD     CLOUDY    77  68  73 S13G26    29.88F
6HR MIN TEMP:  68; 6HR MAX TEMP:  77; 6HR PCP: TRACE;

STEVENS POINT  CLOUDY    77  64  65 SE13G18   29.91F
6HR MIN TEMP:  67; 6HR MAX TEMP:  78;

WAUPACA        CLOUDY    86  64  48 SE12      29.94F HX  87
6HR MIN TEMP:  65; 6HR MAX TEMP:  86;

WAUTOMA        CLOUDY    87  65  47 S14       29.94F HX  88
6HR MIN TEMP:  65; 6HR MAX TEMP:  87;

WISC RAPIDS    CLOUDY    77  66  68 S16G23    29.88F
6HR MIN TEMP:  69; 6HR MAX TEMP:  79; 6HR PCP: TRACE;

CAMP DOUGLAS   CLOUDY    75  75 100 SE13      29.88F
                                      6HR PCP:  0.02;

$$

WIZ011>013-019>022-031-037>040-048>050-281900-
NORTHEAST WISCONSIN

CITY           SKY/WX    TMP DP  RH WIND       PRES   REMARKS
ANTIGO         CLOUDY    76  65  69 SE15      29.94F
SHAWANO        CLOUDY    84  65  53 S9        29.94F HX  86
6HR MIN TEMP:  69; 6HR MAX TEMP:  84;

OCONTO         CLOUDY    82  67  61 S7        29.94F HX  84
6HR MIN TEMP:  63; 6HR MAX TEMP:  83;

STURGEON BAY   CLOUDY    82  64  54 S14       29.99F HX  84
6HR MIN TEMP:  70; 6HR MAX TEMP:  84;

GREEN BAY      CLOUDY    84  65  52 S10       29.95F HX  86
6HR MIN TEMP:  66; 6HR MAX TEMP:  85;

MANITOWOC      PTSUNNY   81  68  64 MISG      29.98F HX  84
6HR MIN TEMP:  67; 6HR MAX TEMP:  84;

APPLETON       PTSUNNY   84  61  45 S10       29.97F HX  84
CLINTONVILLE   CLOUDY    82  63  51 S16       29.92F HX  83
OSHKOSH        CLOUDY    86  65  49 S16       29.95F HX  88
6HR MIN TEMP:  67; 6HR MAX TEMP:  86;

$$

WIZ032>034-041-042-053>061-281900-
SOUTHWEST WISCONSIN

CITY           SKY/WX    TMP DP  RH WIND       PRES   REMARKS
LA CROSSE      CLOUDY    75  71  87 SW8       29.86S
6HR MIN TEMP:  71; 6HR MAX TEMP:  75; 6HR PCP:  0.72;

SPARTA         CLOUDY    72  69  89 SW6G24    29.85F
6HR MIN TEMP:  69; 6HR MAX TEMP:  75; 6HR PCP:  0.26;

VIROQUA        CLOUDY    71  71 100 SE18G29   29.87F
6HR MIN TEMP:  69; 6HR MAX TEMP:  71; 6HR PCP:  0.24;

BOSCOBEL       RAIN      75  72  90 SE7       29.89F FOG
6HR MIN TEMP:  72; 6HR MAX TEMP:  78; 6HR PCP:  0.16;

PRAIRIE DU CHI LGT RAIN  73  69  88 E7        29.87F
6HR MIN TEMP:  71; 6HR MAX TEMP:  74; 6HR PCP:  0.27;

PLATTEVILLE    CLOUDY    76  74  91 S13       29.98F
6HR MIN TEMP:  68; 6HR MAX TEMP:  79;

$$

WIZ056-057-062-063-064-067-068-281900-
SOUTH CENTRAL WISCONSIN

CITY           SKY/WX    TMP DP  RH WIND       PRES   REMARKS
REEDSBURG      CLOUDY    79  72  77 S5        29.94F HX  82
6HR MIN TEMP:  68; 6HR MAX TEMP:  80;

BARABOO/DELLS  CLOUDY    82  67  61 S12       29.95F HX  84
6HR MIN TEMP:  70; 6HR MAX TEMP:  83;

LONE ROCK      CLOUDY    78  72  81 SE5       29.91F HX  80
6HR MIN TEMP:  69; 6HR MAX TEMP:  79; 6HR PCP:  0.01;

MINERAL POINT  CLOUDY    79  72  78 S10G20    29.97F HX  82
MADISON        PTSUNNY   83  69  62 S10       29.96F HX  86
6HR MIN TEMP:  70; 6HR MAX TEMP:  84;

MIDDLETON      PTSUNNY   84  69  60 S8        29.97F HX  88
6HR MIN TEMP:  69; 6HR MAX TEMP:  84;

WATERTOWN      PTSUNNY   85  70  61 S8        29.98S HX  89
6HR MIN TEMP:  67; 6HR MAX TEMP:  85;

MONROE         DRIZZLE   79  72  78 S9        29.99F HX  82
JANESVILLE     PTSUNNY   88  70  55 SW12      29.98F HX  92
$$

WIZ051-052-058>065-066-070>072-281900-
SOUTHEAST WISCONSIN

CITY           SKY/WX    TMP DP  RH WIND       PRES   REMARKS
MILWAUKEE      MOSUNNY   84  66  54 SE12      29.98F HX  86
6HR MIN TEMP:  71; 6HR MAX TEMP:  86;

WAUKESHA       SUNNY     86  63  45 SE7       30.00F HX  87
MILWAUKEE/TIMM SUNNY     86  61  42 SE9       29.99F HX  86
RACINE         MOSUNNY   81  68  64 SE9       30.01F HX  84
6HR MIN TEMP:  69; 6HR MAX TEMP:  83;

BURLINGTON     MOSUNNY   85  68  55 S6        29.99S HX  88
6HR MIN TEMP:  59; 6HR MAX TEMP:  85;

KENOSHA        SUNNY     85  66  53 SE10      29.99F HX  87
6HR MIN TEMP:  66; 6HR MAX TEMP:  86;

FOND DU LAC    PTSUNNY   86  65  49 S12       29.96F HX  88
6HR MIN TEMP:  68; 6HR MAX TEMP:  86;

SHEBOYGAN      PTSUNNY   82  65  56 S10       29.98F HX  84
6HR MIN TEMP:  64; 6HR MAX TEMP:  85;

WEST BEND      PTSUNNY   84  61  45 CALM      29.98F HX  84
JUNEAU         MOSUNNY   83  66  56 S12       29.98F HX  86
6HR MIN TEMP:  67; 6HR MAX TEMP:  84;

$$

LSZ147-162-281900-
LAKE SUPERIOR

STATION/POSITION TIME  TEMP    WIND        PRES    WAVE
                       AIR SEA DIR/SP/G            HT/PER
                 (UTC) (F)     (DEG/KT/KT) (MB)    (FT/S)
W MID LAKE BUOY  1750   67 62  110/ 14/ 16 1009.7F   2/ 3
DEVILS ISLAND    1800   79     190/ 10/ 16 1008.5S
SAXON HARBOR     1720   79                 1008.8R
$$

LMZ867-665-643>646-281900-
LAKE MICHIGAN

STATION/POSITION TIME  TEMP    WIND        PRES    WAVE
                       AIR SEA DIR/SP/G            HT/PER
                 (UTC) (F)     (DEG/KT/KT) (MB)    (FT/S)



USA.gov is the U.S. government's official web portal to all federal, state and local government web resources and services.